Weather in Karkaralinsk

Kazakhstan     49˚24′44″N   75˚28′12″E
temp.,
°C
wind,
m/s
gust,
m/s
humid.,
%
clouds,
%
prec.,
mm/h
press.,
hPa
HPBL,
m
28 november, sat
sat2800:00−8˚sse336775 0.0 103122
03:00−7˚sse2365100 0.0 102921
06:00−6˚se3366100 0.0 102824
09:00−6˚se3371100 0.0 102637
12:00−4˚sse4993100 0.4 1024328
15:00−3˚s61285100 0.7 1023628
18:00−4˚sw81395100 1.3 1024712
21:00−8˚sw7158698 0.9 1026678
29 november, sun
sun2900:00−10˚sw8159192 1.0 1028647
03:00−11˚sw7139393 0.4 1030707
06:00−14˚w10149496 1.2 1033525
09:00−15˚w6995100 0.8 1036527
12:00−15˚w5992100 1.1 1038530
15:00−14˚wnw6993100 0.3 1039585
18:00−16˚wnw4997100 0.6 1041391
21:00−17˚wnw4898100 0.3 1043237
30 november, mon
mon3000:00−19˚wnw3499100 0.5 104583
03:00−20˚w23100100 0.2 104736
06:00−21˚wnw1299100 0.4 104922
09:00−21˚n1110098 0.1 105020
12:00−17˚nne129598 0.1 1050156
15:00−17˚nne2296100 0.1 1049150
18:00−21˚ene2210086 0.1 105120
21:00−21˚ese229931 0.0 105220
1 december, tue
tue100:00−20˚ese339818 0.0 105120
03:00−20˚e3310060 0.0 105020
06:00−19˚e349979 0.0 105041
09:00−19˚e469995 0.0 1050100
12:00−14˚e6159383 0.0 1049364
15:00−12˚e6139366 0.0 1048392
18:00−16˚e5119776 0.0 1049190
21:00−17˚e499899 0.0 1050162
2 december, wed
wed200:00−18˚e469999 0.0 1050107
03:00−19˚e349871 0.0 104958
06:00−19˚e449642 0.0 104854
09:00−19˚ese44960 0.0 104862
12:00−14˚ese512882 0.0 1046271
15:00−13˚e412880 0.0 1044275
18:00−16˚e57880 0.0 1044125
21:00−18˚ese34840 0.0 104446